Kaldármelar Airport

Jump to: basic info | weather | comments

Related pages: nearby airports | nearby navaids | notams | map

Basic information (top)

Codes: BIKA
Location: lon 64.778900, lat -22.256901, elev 160 ft / 49 m msl
Status: small_airport

Weather (top)

Current conditions for Reykjavik Airport 40nm (74km) SSE (rec'd 2015/01/30 21:00Z):

BIRK 302100Z 35012KT 9999 FEW036 M03/M09 Q1012 R01/390154

Airport forecast for Reykjavik Airport 40nm (74km) SSE (rec'd 2015/01/30 21:39Z):

TAF BIRK 301935Z 3021/3121 09005KT 9999 FEW030 TX00/3115Z TNM07/3109Z 
      TEMPO 3021/3106 01013KT 
      BECMG 3111/3114 27012KT SHSN SCT015 BKN025

Latest comments (top)

No comments yet for Kaldármelar Airport

More... (top)

See also NOTAMs and nearby airports and navaids, or visit the Kaldármelar Airport page at the main OurAirports website..